2016-10-06 00:06:50 r, 15.95m,0000000036Hz,0000012523c,0000000.027s, 022.8C,00002195
2016-10-06 00:16:50 r, 15.86m,0000000040Hz,0000011466c,0000000.025s, 022.8C,00002195
2016-10-06 00:26:50 r, 15.82m,0000000042Hz,0000011096c,0000000.024s, 022.8C,00002195
2016-10-06 00:36:50 r, 15.85m,0000000041Hz,0000011401c,0000000.025s, 022.8C,00002195
2016-10-06 00:46:50 r, 15.82m,0000000042Hz,0000011026c,0000000.024s, 022.8C,00002195
2016-10-06 00:56:50 r, 15.92m,0000000038Hz,0000012157c,0000000.026s, 022.8C,00002195
2016-10-06 01:06:53 r, 15.60m,0000000051Hz,0000009054c,0000000.020s, 022.8C,00002195
2016-10-06 01:16:50 r, 15.60m,0000000051Hz,0000009097c,0000000.020s, 022.5C,00002195
2016-10-06 01:26:50 r, 15.73m,0000000045Hz,0000010217c,0000000.022s, 022.8C,00002195
2016-10-06 01:36:50 r, 15.73m,0000000045Hz,0000010186c,0000000.022s, 022.5C,00002195
2016-10-06 01:46:50 r, 17.13m,0000000013Hz,0000037285c,0000000.081s, 022.5C,00002195
2016-10-06 01:56:50 r, 16.96m,0000000014Hz,0000031757c,0000000.069s, 022.5C,00002195
2016-10-06 02:06:50 r, 18.01m,0000000006Hz,0000083003c,0000000.180s, 022.2C,00002195
2016-10-06 02:16:50 r, 16.78m,0000000017Hz,0000026972c,0000000.059s, 021.9C,00002195
2016-10-06 02:26:50 r, 17.26m,0000000011Hz,0000041667c,0000000.090s, 021.9C,00002195
2016-10-06 02:36:50 r, 17.87m,0000000006Hz,0000072928c,0000000.158s, 021.5C,00002195
2016-10-06 02:46:50 r, 17.97m,0000000005Hz,0000079596c,0000000.173s, 021.5C,00002195
2016-10-06 02:56:50 r, 18.60m,0000000003Hz,0000142898c,0000000.310s, 021.2C,00002195
2016-10-06 03:06:51 r, 17.98m,0000000006Hz,0000080941c,0000000.176s, 020.9C,00002195
2016-10-06 03:16:50 r, 16.69m,0000000018Hz,0000024809c,0000000.054s, 020.9C,00002195
2016-10-06 03:26:50 r, 16.79m,0000000017Hz,0000027086c,0000000.059s, 020.9C,00002195
2016-10-06 03:36:50 r, 17.09m,0000000013Hz,0000035548c,0000000.077s, 021.2C,00002195
2016-10-06 03:46:50 r, 16.23m,0000000029Hz,0000016052c,0000000.035s, 021.2C,00002195
2016-10-06 03:56:50 r, 17.17m,0000000012Hz,0000038250c,0000000.083s, 021.2C,00002195
2016-10-06 04:06:50 r, 16.17m,0000000030Hz,0000015248c,0000000.033s, 020.9C,00002195
2016-10-06 04:16:50 r, 17.06m,0000000013Hz,0000034721c,0000000.075s, 020.9C,00002195
2016-10-06 04:26:51 r, 16.75m,0000000017Hz,0000026199c,0000000.057s, 020.9C,00002195
2016-10-06 04:36:50 r, 16.13m,0000000032Hz,0000014708c,0000000.032s, 020.9C,00002195
2016-10-06 04:46:50 r, 16.53m,0000000021Hz,0000021440c,0000000.047s, 020.9C,00002195
2016-10-06 04:56:50 r, 16.02m,0000000034Hz,0000013402c,0000000.029s, 020.6C,00002195
2016-10-06 05:06:50 r, 15.82m,0000000043Hz,0000011026c,0000000.024s, 020.6C,00002195
2016-10-06 05:16:53 r, 15.67m,0000000047Hz,0000009722c,0000000.021s, 020.9C,00002195
2016-10-06 05:26:50 r, 15.53m,0000000054Hz,0000008507c,0000000.018s, 020.9C,00002195
2016-10-06 05:36:51 r, 15.77m,0000000043Hz,0000010609c,0000000.023s, 020.6C,00002195
2016-10-06 05:46:51 r, 15.85m,0000000040Hz,0000011419c,0000000.025s, 020.9C,00002195
2016-10-06 05:56:50 r, 16.31m,0000000026Hz,0000017420c,0000000.038s, 020.9C,00002195
2016-10-06 06:06:50 r, 15.89m,0000000039Hz,0000011865c,0000000.026s, 020.9C,00002195
2016-10-06 06:16:50 r, 15.97m,0000000036Hz,0000012694c,0000000.028s, 020.9C,00002195
2016-10-06 06:26:50 r, 15.92m,0000000038Hz,0000012189c,0000000.026s, 020.9C,00002195
2016-10-06 06:36:51 r, 16.18m,0000000030Hz,0000015404c,0000000.033s, 020.6C,00002195
2016-10-06 06:46:50 r, 15.68m,0000000047Hz,0000009759c,0000000.021s, 020.6C,00002195
2016-10-06 06:56:51 r, 14.43m,0000000150Hz,0000000000c,0000000.000s, 020.6C,00002195
2016-10-06 07:06:50 r, 12.48m,0000000910Hz,0000000000c,0000000.000s, 020.6C,00002195
2016-10-06 07:16:50 r, 10.40m,0000006128Hz,0000000000c,0000000.000s, 020.6C,00002195
2016-10-06 07:26:50 r, 08.63m,0000031232Hz,0000000000c,0000000.000s, 020.6C,00002195
2016-10-06 07:36:50 r, 07.51m,0000088447Hz,0000000000c,0000000.000s, 020.6C,00002195
2016-10-06 07:46:53 r, 06.71m,0000184378Hz,0000000000c,0000000.000s, 020.3C,00002195
2016-10-06 07:56:50 r, 06.05m,0000337987Hz,0000000000c,0000000.000s, 020.3C,00002195
2016-10-06 08:06:50 r, 00.00m,0000508633Hz,0000000000c,0000000.000s, 020.3C,00002195
2016-10-06 08:16:50 r, 00.00m,0000563509Hz,0000000000c,0000000.000s, 020.3C,00002195
2016-10-06 08:26:50 r, 00.00m,0000540146Hz,0000000000c,0000000.000s, 020.3C,00002195
2016-10-06 08:36:50 r, 00.00m,0000563501Hz,0000000000c,0000000.000s, 020.3C,00002195
2016-10-06 08:46:50 r, 00.00m,0000563443Hz,0000000000c,0000000.000s, 020.3C,00002195
2016-10-06 08:56:50 r, 00.00m,0000563448Hz,0000000000c,0000000.000s, 020.3C,00002195
2016-10-06 09:06:51 r, 00.00m,0000563455Hz,0000000000c,0000000.000s, 020.9C,00002195
2016-10-06 09:16:50 r, 00.00m,0000563703Hz,0000000000c,0000000.000s, 021.9C,00002195
2016-10-06 09:26:50 r, 00.00m,0000563849Hz,0000000000c,0000000.000s, 022.5C,00002195
2016-10-06 09:36:50 r, 00.00m,0000563817Hz,0000000000c,0000000.000s, 022.8C,00002195
2016-10-06 09:46:50 r, 00.00m,0000563845Hz,0000000000c,0000000.000s, 023.2C,00002195
2016-10-06 09:56:50 r, 00.00m,0000563907Hz,0000000000c,0000000.000s, 023.2C,00002195
2016-10-06 10:06:51 r, 00.00m,0000563946Hz,0000000000c,0000000.000s, 023.5C,00002195
2016-10-06 10:16:50 r, 00.00m,0000563966Hz,0000000000c,0000000.000s, 023.8C,00002195
2016-10-06 10:26:50 r, 00.00m,0000564106Hz,0000000000c,0000000.000s, 024.1C,00002195
2016-10-06 10:36:50 r, 00.00m,0000564134Hz,0000000000c,0000000.000s, 024.8C,00002195
2016-10-06 10:46:50 r, 00.00m,0000564068Hz,0000000000c,0000000.000s, 024.8C,00002195
2016-10-06 10:56:50 r, 00.00m,0000564124Hz,0000000000c,0000000.000s, 024.8C,00002195
2016-10-06 11:06:50 r, 00.00m,0000564157Hz,0000000000c,0000000.000s, 025.1C,00002195
2016-10-06 11:16:50 r, 00.00m,0000564223Hz,0000000000c,0000000.000s, 025.4C,00002195
2016-10-06 11:26:51 r, 00.00m,0000564189Hz,0000000000c,0000000.000s, 025.7C,00002195
2016-10-06 11:36:50 r, 00.00m,0000564333Hz,0000000000c,0000000.000s, 025.7C,00002195
2016-10-06 11:46:53 r, 00.00m,0000564201Hz,0000000000c,0000000.000s, 025.7C,00002195
2016-10-06 11:56:50 r, 00.00m,0000564194Hz,0000000000c,0000000.000s, 025.7C,00002195
2016-10-06 12:06:50 r, 00.00m,0000564056Hz,0000000000c,0000000.000s, 025.4C,00002195
2016-10-06 12:16:51 r, 00.00m,0000564127Hz,0000000000c,0000000.000s, 025.4C,00002195
2016-10-06 12:26:50 r, 00.00m,0000564198Hz,0000000000c,0000000.000s, 026.1C,00002195
2016-10-06 12:36:50 r, 00.00m,0000564204Hz,0000000000c,0000000.000s, 026.1C,00002195
2016-10-06 12:46:51 r, 00.00m,0000564193Hz,0000000000c,0000000.000s, 025.7C,00002195
2016-10-06 12:56:50 r, 00.00m,0000564243Hz,0000000000c,0000000.000s, 026.1C,00002195
2016-10-06 13:06:50 r, 00.00m,0000564192Hz,0000000000c,0000000.000s, 025.7C,00002195
2016-10-06 13:16:50 r, 00.00m,0000564126Hz,0000000000c,0000000.000s, 025.7C,00002195
2016-10-06 13:26:50 r, 00.00m,0000564077Hz,0000000000c,0000000.000s, 026.1C,00002195
2016-10-06 13:36:50 r, 00.00m,0000564106Hz,0000000000c,0000000.000s, 025.7C,00002195
2016-10-06 13:46:50 r, 00.00m,0000564098Hz,0000000000c,0000000.000s, 025.7C,00002195
2016-10-06 13:56:50 r, 00.00m,0000564135Hz,0000000000c,0000000.000s, 025.4C,00002195
2016-10-06 14:06:50 r, 00.00m,0000564149Hz,0000000000c,0000000.000s, 025.4C,00002195
2016-10-06 14:16:50 r, 00.00m,0000564081Hz,0000000000c,0000000.000s, 025.4C,00002195
2016-10-06 14:26:50 r, 00.00m,0000564106Hz,0000000000c,0000000.000s, 025.4C,00002195
2016-10-06 14:36:50 r, 00.00m,0000563988Hz,0000000000c,0000000.000s, 025.1C,00002195
2016-10-06 14:46:50 r, 00.00m,0000564121Hz,0000000000c,0000000.000s, 025.4C,00002195
2016-10-06 14:56:50 r, 00.00m,0000564162Hz,0000000000c,0000000.000s, 025.4C,00002195
2016-10-06 15:06:51 r, 00.00m,0000564161Hz,0000000000c,0000000.000s, 025.4C,00002195
2016-10-06 15:16:51 r, 00.00m,0000564066Hz,0000000000c,0000000.000s, 025.4C,00002195
2016-10-06 15:26:50 r, 00.00m,0000564090Hz,0000000000c,0000000.000s, 025.4C,00002195
2016-10-06 15:36:50 r, 00.00m,0000564065Hz,0000000000c,0000000.000s, 025.4C,00002195
2016-10-06 15:46:50 r, 00.00m,0000564088Hz,0000000000c,0000000.000s, 025.1C,00002195
2016-10-06 15:56:50 r, 00.00m,0000564011Hz,0000000000c,0000000.000s, 024.8C,00002195
2016-10-06 16:06:50 r, 00.00m,0000564037Hz,0000000000c,0000000.000s, 024.8C,00002195
2016-10-06 16:16:51 r, 00.00m,0000563960Hz,0000000000c,0000000.000s, 024.8C,00002195
2016-10-06 16:26:50 r, 00.00m,0000564030Hz,0000000000c,0000000.000s, 024.8C,00002195
2016-10-06 16:36:51 r, 00.00m,0000563969Hz,0000000000c,0000000.000s, 024.8C,00002195
2016-10-06 16:46:50 r, 00.00m,0000563860Hz,0000000000c,0000000.000s, 024.4C,00002195
2016-10-06 16:56:50 r, 00.00m,0000563849Hz,0000000000c,0000000.000s, 024.1C,00002195
2016-10-06 17:06:50 r, 00.00m,0000563846Hz,0000000000c,0000000.000s, 024.1C,00002195
2016-10-06 17:16:52 r, 00.00m,0000563833Hz,0000000000c,0000000.000s, 024.1C,00002195
2016-10-06 17:26:50 r, 00.00m,0000563920Hz,0000000000c,0000000.000s, 024.1C,00002195
2016-10-06 17:36:50 r, 00.00m,0000563770Hz,0000000000c,0000000.000s, 024.1C,00002195
2016-10-06 17:46:50 r, 00.00m,0000563826Hz,0000000000c,0000000.000s, 023.8C,00002195
2016-10-06 17:56:50 r, 00.00m,0000563776Hz,0000000000c,0000000.000s, 023.8C,00002195
2016-10-06 18:06:51 r, 00.00m,0000563751Hz,0000000000c,0000000.000s, 023.5C,00002195
2016-10-06 18:16:50 r, 00.00m,0000563789Hz,0000000000c,0000000.000s, 023.5C,00002195
2016-10-06 18:26:50 r, 00.00m,0000466988Hz,0000000000c,0000000.000s, 023.5C,00002195
2016-10-06 18:36:51 r, 06.13m,0000315514Hz,0000000000c,0000000.000s, 023.2C,00002195
2016-10-06 18:46:50 r, 06.76m,0000175412Hz,0000000000c,0000000.000s, 022.8C,00002195
2016-10-06 18:56:50 r, 07.69m,0000075157Hz,0000000000c,0000000.000s, 022.8C,00002195
2016-10-06 19:06:50 r, 09.00m,0000022447Hz,0000000000c,0000000.000s, 022.8C,00002195
2016-10-06 19:16:51 r, 10.95m,0000003726Hz,0000000000c,0000000.000s, 022.5C,00002195
2016-10-06 19:26:50 r, 12.94m,0000000599Hz,0000000000c,0000000.000s, 022.5C,00002195
2016-10-06 19:36:51 r, 14.67m,0000000118Hz,0000003869c,0000000.008s, 022.5C,00002195
2016-10-06 19:46:51 r, 15.35m,0000000064Hz,0000007166c,0000000.016s, 022.5C,00002195
2016-10-06 19:56:50 r, 15.91m,0000000038Hz,0000012084c,0000000.026s, 022.5C,00002195
2016-10-06 20:06:50 r, 15.78m,0000000042Hz,0000010721c,0000000.023s, 022.5C,00002195
2016-10-06 20:16:50 r, 15.35m,0000000063Hz,0000007208c,0000000.016s, 022.5C,00002195
2016-10-06 20:26:50 r, 15.94m,0000000037Hz,0000012351c,0000000.027s, 022.5C,00002195
2016-10-06 20:36:52 r, 16.72m,0000000018Hz,0000025430c,0000000.055s, 022.5C,00002195
2016-10-06 20:46:51 r, 16.41m,0000000024Hz,0000019173c,0000000.042s, 022.2C,00002195
2016-10-06 20:56:50 r, 16.73m,0000000018Hz,0000025587c,0000000.056s, 022.2C,00002195
2016-10-06 21:06:50 r, 16.36m,0000000026Hz,0000018232c,0000000.040s, 022.2C,00002195
2016-10-06 21:16:50 r, 16.46m,0000000023Hz,0000020092c,0000000.044s, 022.2C,00002195
2016-10-06 21:26:50 r, 18.47m,0000000003Hz,0000126796c,0000000.275s, 021.9C,00002195
2016-10-06 21:36:50 r, 18.47m,0000000004Hz,0000126642c,0000000.275s, 021.5C,00002195
2016-10-06 21:46:51 r, 18.34m,0000000004Hz,0000112247c,0000000.244s, 021.2C,00002195
2016-10-06 21:56:50 r, 18.47m,0000000003Hz,0000127733c,0000000.277s, 020.9C,00002195
2016-10-06 22:06:50 r, 18.02m,0000000006Hz,0000084478c,0000000.183s, 020.6C,00002195
2016-10-06 22:16:50 r, 17.49m,0000000008Hz,0000051783c,0000000.112s, 020.6C,00002195
2016-10-06 22:26:50 r, 17.79m,0000000007Hz,0000068498c,0000000.149s, 020.6C,00002195
2016-10-06 22:36:50 r, 16.84m,0000000016Hz,0000028508c,0000000.062s, 020.6C,00002195
2016-10-06 22:46:50 r, 16.08m,0000000032Hz,0000014022c,0000000.030s, 020.6C,00002195
2016-10-06 22:56:50 r, 16.91m,0000000015Hz,0000030391c,0000000.066s, 020.9C,00002195
2016-10-06 23:06:50 r, 17.44m,0000000010Hz,0000048910c,0000000.106s, 020.6C,00002195
2016-10-06 23:16:50 r, 18.00m,0000000006Hz,0000082465c,0000000.179s, 020.6C,00002195
2016-10-06 23:26:50 r, 18.43m,0000000004Hz,0000122065c,0000000.265s, 020.3C,00002195
2016-10-06 23:36:50 r, 17.91m,0000000006Hz,0000076354c,0000000.166s, 020.3C,00002195
2016-10-06 23:46:52 r, 16.96m,0000000015Hz,0000031708c,0000000.069s, 020.3C,00002195
2016-10-06 23:56:50 r, 16.91m,0000000015Hz,0000030159c,0000000.065s, 020.3C,00002195
